DW4212 Weather Reports


Display with metric or nautical units.
time (UTC)temp
F
wind
direction
speed
MPH
gust
MPH
rain 1hr
in
rain 24hr
in
rain mn
in
humidity
%
barometer
mb
20260905055925 72 17 0.0 0.0 0.00 0.00 0.00 39 1025.7
20260905054911 72 17 0.0 0.0 0.00 0.00 0.00 38 1025.7
20260905053918 74 17 0.0 0.0 0.00 0.00 0.00 37 1025.7
20260905052924 75 17 0.0 0.0 0.00 0.00 0.00 36 1025.7
20260905051911 76 17 0.0 0.0 0.00 0.00 0.00 37 1025.6
20260905050918 76 17 0.0 0.0 0.00 0.00 0.00 36 1025.6
20260905045920 76 17 0.0 0.0 0.00 0.00 0.00 36 1025.6
20260905044913 76 17 0.0 0.0 0.00 0.00 0.00 36 1025.6
20260905043921 75 17 0.0 2.0 0.00 0.00 0.00 36 1025.6
20260905042924 75 17 0.0 0.0 0.00 0.00 0.00 36 1025.6
20260905041913 74 17 0.0 0.0 0.00 0.00 0.00 36 1025.6
20260905040926 75 17 0.0 0.0 0.00 0.00 0.00 36 1025.6
20260905035927 75 17 0.0 0.0 0.00 0.00 0.00 36 1025.5
20260905034916 76 17 0.0 0.0 0.00 0.00 0.00 33 1025.6
20260905033910 76 17 0.0 0.0 0.00 0.00 0.00 33 1025.6
20260905032912 76 17 0.0 0.0 0.00 0.00 0.00 32 1025.6
20260905031921 76 17 0.0 0.0 0.00 0.00 0.00 33 1025.6
20260905030912 76 17 0.0 0.0 0.00 0.00 0.00 33 1025.7
20260905025918 77 17 0.0 0.0 0.00 0.00 0.00 33 1025.7
20260905024927 77 17 0.0 0.0 0.00 0.00 0.00 32 1025.7
20260905023916 77 17 0.0 0.0 0.00 0.00 0.00 32 1025.7
20260905022919 77 17 0.0 0.0 0.00 0.00 0.00 31 1025.8
20260905021912 78 17 0.0 0.0 0.00 0.00 0.00 31 1025.8
20260905020920 78 17 0.0 0.0 0.00 0.00 0.00 30 1025.8
20260905015921 79 17 0.0 0.0 0.00 0.00 0.00 30 1025.8
20260905014928 79 17 0.0 0.0 0.00 0.00 0.00 29 1026.0
20260905013920 79 17 0.0 0.0 0.00 0.00 0.00 29 1025.9
20260905012923 79 17 0.0 0.0 0.00 0.00 0.00 28 1025.9
20260905011911 79 17 0.0 0.0 0.00 0.00 0.00 28 1025.9
20260905010920 79 17 0.0 0.0 0.00 0.00 0.00 28 1025.9
20260905005926 79 17 0.0 0.0 0.00 0.00 0.00 28 1025.9
20260905004913 79 17 0.0 2.0 0.00 0.00 0.00 28 1026.0
20260905003923 79 18 0.0 4.0 0.00 0.00 0.00 28 1026.0
20260905002925 80 17 0.0 1.0 0.00 0.00 0.00 27 1026.1
20260905001917 80 17 0.0 4.0 0.00 0.00 0.00 28 1026.1
20260905000924 81 13 0.0 0.0 0.00 0.00 0.00 27 1026.0
20260904235924 82 13 0.0 4.0 0.00 0.00 0.00 26 1026.1
20260904234913 82 11 0.0 3.0 0.00 0.00 0.00 26 1026.2
20260904233925 81 9 0.0 0.0 0.00 0.00 0.00 27 1026.2
20260904232927 80 9 0.0 0.0 0.00 0.00 0.00 27 1026.3
20260904231915 80 9 0.0 0.0 0.00 0.00 0.00 27 1026.3
20260904230923 78 9 0.0 0.0 0.00 0.00 0.00 28 1026.3
20260904225927 78 9 0.0 0.0 0.00 0.00 0.00 28 1026.3
20260904224914 78 9 0.0 0.0 0.00 0.00 0.00 28 1026.3
20260904223923 77 9 0.0 0.0 0.00 0.00 0.00 29 1026.4
20260904222923 78 9 0.0 2.0 0.00 0.00 0.00 30 1026.3
20260904221916 82 360 0.0 0.0 0.00 0.00 0.00 24 1025.9
20260904220923 82 360 0.0 0.0 0.00 0.00 0.00 24 1025.9
20260904215922 82 360 0.0 0.0 0.00 0.00 0.00 24 1025.9
20260904214914 83 360 0.0 0.0 0.00 0.00 0.00 24 1025.9
20260904213917 83 360 0.0 0.0 0.00 0.00 0.00 24 1025.9
20260904212913 83 360 0.0 0.0 0.00 0.00 0.00 23 1025.9
20260904211921 83 360 0.0 0.0 0.00 0.00 0.00 23 1026.0
20260904210913 84 360 0.0 0.0 0.00 0.00 0.00 23 1026.2
20260904205911 84 355 0.0 3.0 0.00 0.00 0.00 23 1026.2
20260904204920 84 355 0.0 2.0 0.00 0.00 0.00 23 1026.1
20260904203928 84 355 0.0 3.0 0.00 0.00 0.00 23 1026.1
20260904202913 84 355 0.0 1.0 0.00 0.00 0.00 23 1026.0
20260904201921 85 355 0.0 1.0 0.00 0.00 0.00 22 1025.8
20260904200930 85 355 0.0 4.0 0.00 0.00 0.00 22 1025.8
20260904195911 84 355 0.0 0.0 0.00 0.00 0.00 23 1025.9
20260904194923 84 355 0.0 2.0 0.00 0.00 0.00 23 1025.9
20260904193912 85 355 0.0 0.0 0.00 0.00 0.00 22 1025.8
20260904192930 85 355 0.0 3.0 0.00 0.00 0.00 23 1025.7
20260904191919 85 355 0.0 0.0 0.00 0.00 0.00 22 1025.5
20260904190912 86 355 0.0 0.0 0.00 0.00 0.00 22 1025.3
20260904185928 87 355 0.0 0.0 0.00 0.00 0.00 21 1025.3
20260904184918 88 355 0.0 0.0 0.00 0.00 0.00 20 1025.2
20260904183928 89 355 0.0 0.0 0.00 0.00 0.00 20 1025.2
20260904182912 90 355 0.0 0.0 0.00 0.00 0.00 19 1025.1
20260904181922 91 355 0.0 0.0 0.00 0.00 0.00 19 1025.2
20260904180930 92 355 0.0 0.0 0.00 0.00 0.00 19 1025.0
20260904175911 92 355 0.0 0.0 0.00 0.00 0.00 19 1025.0
20260904174924 92 355 0.0 0.0 0.00 0.00 0.00 18 1025.0
20260904173913 92 355 0.0 0.0 0.00 0.00 0.00 18 1025.0
20260904172929 93 355 0.0 0.0 0.00 0.00 0.00 18 1025.0
20260904171919 93 355 0.0 2.0 0.00 0.00 0.00 18 1025.0
20260904170913 94 355 0.0 2.0 0.00 0.00 0.00 17 1025.0
20260904165911 94 355 0.0 5.0 0.00 0.00 0.00 17 1024.9
20260904164920 94 328 0.0 8.0 0.00 0.00 0.00 17 1024.9
20260904163927 95 30 0.0 3.0 0.00 0.00 0.00 17 1024.9
20260904162913 95 5 0.0 0.0 0.00 0.00 0.00 17 1024.9
20260904161923 95 5 0.0 2.0 0.00 0.00 0.00 17 1025.0
20260904160911 96 5 0.0 4.0 0.00 0.00 0.00 16 1025.1
20260904155930 96 12 0.0 7.0 0.00 0.00 0.00 16 1025.0
20260904154924 97 202 0.0 3.0 0.00 0.00 0.00 16 1025.0
20260904153914 97 196 0.0 3.0 0.00 0.00 0.00 15 1025.0
20260904152916 98 194 0.0 3.0 0.00 0.00 0.00 15 1025.0
20260904150922 98 186 1.0 6.0 0.00 0.00 0.00 14 1025.1
20260904145924 97 265 1.0 8.0 0.00 0.00 0.00 15 1025.2
20260904144914 98 178 1.0 6.0 0.00 0.00 0.00 14 1025.2
20260904143928 99 198 1.0 7.0 0.00 0.00 0.00 14 1025.3
20260904142928 99 207 0.0 6.0 0.00 0.00 0.00 15 1025.4
20260904141924 98 184 0.0 8.0 0.00 0.00 0.00 15 1025.4
20260904141013 98 174 1.0 6.0 0.00 0.00 0.00 15 1025.5
20260904135928 99 210 0.0 4.0 0.00 0.00 0.00 15 1025.6
20260904134921 98 219 0.0 7.0 0.00 0.00 0.00 15 1025.8
20260904133911 97 182 0.0 4.0 0.00 0.00 0.00 15 1025.8
20260904132913 98 182 1.0 10.0 0.00 0.00 0.00 15 1025.8
20260904131942 97 164 0.0 7.0 0.00 0.00 0.00 15 1025.9
20260904130934 98 195 1.0 8.0 0.00 0.00 0.00 15 1026.1
20260904125935 97 179 0.0 7.0 0.00 0.00 0.00 15 1026.1
20260904124943 97 184 0.0 6.0 0.00 0.00 0.00 16 1026.2
20260904123933 96 171 1.0 9.0 0.00 0.00 0.00 16 1026.3
20260904122935 96 175 0.0 8.0 0.00 0.00 0.00 17 1026.3
20260904121944 95 177 0.0 8.0 0.00 0.00 0.00 17 1026.5
20260904120936 96 175 1.0 8.0 0.00 0.00 0.00 16 1026.7
20260904115945 96 166 1.0 6.0 0.00 0.00 0.00 17 1026.7
20260904114931 95 188 1.0 9.0 0.00 0.00 0.00 17 1026.7
20260904113934 95 177 1.0 8.0 0.00 0.00 0.00 17 1026.8
20260904112935 95 173 0.0 6.0 0.00 0.00 0.00 17 1026.9
20260904111947 94 171 0.0 6.0 0.00 0.00 0.00 18 1026.9
20260904110936 94 180 0.0 9.0 0.00 0.00 0.00 17 1027.1
20260904105937 94 179 0.0 8.0 0.00 0.00 0.00 18 1027.2
20260904104946 94 173 1.0 6.0 0.00 0.00 0.00 18 1027.3
20260904103932 93 177 1.0 7.0 0.00 0.00 0.00 17 1027.3
20260904102950 93 175 0.0 8.0 0.00 0.00 0.00 18 1027.3
20260904101943 93 174 0.0 8.0 0.00 0.00 0.00 18 1027.4
20260904100931 92 190 0.0 4.0 0.00 0.00 0.00 18 1027.5
20260904095933 91 186 0.0 7.0 0.00 0.00 0.00 18 1027.5
20260904094942 90 223 0.0 4.0 0.00 0.00 0.00 18 1027.4
20260904093950 89 12 0.0 2.0 0.00 0.00 0.00 19 1027.5
20260904092935 88 14 0.0 2.0 0.00 0.00 0.00 21 1027.4
20260904091943 86 16 0.0 0.0 0.00 0.00 0.00 23 1027.4
20260904090932 85 16 0.0 0.0 0.00 0.00 0.00 24 1027.3
20260904085932 84 16 0.0 3.0 0.00 0.00 0.00 25 1027.4
20260904084939 83 14 0.0 0.0 0.00 0.00 0.00 25 1027.3
20260904083948 82 14 0.0 0.0 0.00 0.00 0.00 26 1027.4
20260904082949 81 14 0.0 0.0 0.00 0.00 0.00 27 1027.2
20260904081935 81 13 0.0 0.0 0.00 0.00 0.00 28 1027.2
20260904080944 79 13 0.0 0.0 0.00 0.00 0.00 30 1027.2
20260904075944 78 13 0.0 0.0 0.00 0.00 0.00 30 1027.0
20260904074952 78 13 0.0 0.0 0.00 0.00 0.00 30 1027.0
20260904073939 77 13 0.0 0.0 0.00 0.00 0.00 30 1027.1
20260904072945 76 13 0.0 0.0 0.00 0.00 0.00 28 1027.2
20260904071951 75 13 0.0 0.0 0.00 0.00 0.00 29 1027.2
20260904070919 74 13 0.0 0.0 0.00 0.00 0.00 30 1027.1
20260904065922 73 13 0.0 0.0 0.00 0.00 0.00 32 1027.1
20260904064912 72 13 0.0 0.0 0.00 0.00 0.00 32 1027.0
20260904063923 72 13 0.0 0.0 0.00 0.00 0.00 32 1027.0
20260904062926 71 13 0.0 2.0 0.00 0.00 0.00 32 1026.9
20260904061915 69 13 0.0 0.0 0.00 0.00 0.00 34 1026.9
20260904060929 69 13 0.0 3.0 0.00 0.00 0.00 35 1026.8
20260904055929 69 15 0.0 0.0 0.00 0.00 0.00 34 1026.7